PRDIE SBVC-SBSG

Flight info

Callsign PRDIE
Flight time 1h 35m
Altitude 45000
Route ANKOL DCT EKERA UN866 USVUR UZ78 TOSAD
Aircraft C750/M-SBDE3FGHRWXY/S

Departure

Time 2026-05-08 00:43
Airport Glauber de Andrade Rocha Airport (SBVC)

Arrival

Time 2026-05-08 02:19
Airport Rio Grande do Norte/São Gonçalo do Amarante–Governador Aluízio Alves International Airport (SBSG)
Time Latitude Longitude Altitude Speed Heading
2026-05-08 00:34 -14.90967 -40.91715 2931 ft 0 kts 215°
2026-05-08 00:37 -14.90967 -40.91719 2931 ft 0 kts 325°
2026-05-08 00:38 -14.90878 -40.91727 2932 ft 8 kts 358°
2026-05-08 00:38 -14.90846 -40.91717 2932 ft 3 kts 31°
2026-05-08 00:38 -14.90822 -40.91700 2931 ft 4 kts 36°
2026-05-08 00:38 -14.90794 -40.91679 2931 ft 5 kts 37°
2026-05-08 00:39 -14.90761 -40.91655 2931 ft 6 kts 34°
2026-05-08 00:39 -14.90715 -40.91630 2931 ft 8 kts 10°
2026-05-08 00:39 -14.90657 -40.91665 2930 ft 12 kts 307°
2026-05-08 00:39 -14.90611 -40.91746 2932 ft 13 kts 291°
2026-05-08 00:40 -14.90566 -40.91831 2931 ft 13 kts 307°
2026-05-08 00:40 -14.90505 -40.91914 2932 ft 15 kts 306°
2026-05-08 00:40 -14.90439 -40.92004 2932 ft 16 kts 309°
2026-05-08 00:40 -14.90370 -40.92101 2932 ft 17 kts 301°
2026-05-08 00:41 -14.90349 -40.92130 2932 ft 0 kts 308°
2026-05-08 00:41 -14.90343 -40.92138 2932 ft 9 kts 311°
2026-05-08 00:41 -14.90291 -40.92206 2932 ft 12 kts 302°
2026-05-08 00:41 -14.90260 -40.92246 2932 ft 2 kts 58°
2026-05-08 00:42 -14.90262 -40.92226 2932 ft 3 kts 115°
2026-05-08 00:42 -14.90295 -40.92172 2932 ft 31 kts 127°
2026-05-08 00:42 -14.90609 -40.91726 2931 ft 118 kts 125°
2026-05-08 00:42 -14.91242 -40.90865 3023 ft 173 kts 126°
2026-05-08 00:43 -14.92097 -40.89707 3237 ft 227 kts 123°
2026-05-08 00:43 -14.93043 -40.88259 3990 ft 256 kts 116°
2026-05-08 00:43 -14.93414 -40.86552 5303 ft 251 kts 85°
2026-05-08 00:43 -14.92748 -40.84857 6066 ft 273 kts 53°
2026-05-08 00:44 -14.91158 -40.83599 6129 ft 306 kts 26°
2026-05-08 00:44 -14.89008 -40.83247 5913 ft 319 kts 352°
2026-05-08 00:44 -14.87085 -40.84072 6751 ft 292 kts 331°
2026-05-08 00:44 -14.85586 -40.85521 6679 ft 302 kts 306°
2026-05-08 00:45 -14.84403 -40.87332 6677 ft 302 kts 307°
2026-05-08 00:45 -14.83401 -40.89195 6871 ft 299 kts 296°
2026-05-08 00:45 -14.82467 -40.91084 7233 ft 284 kts 301°
2026-05-08 00:45 -14.81541 -40.92720 7967 ft 259 kts 302°
2026-05-08 00:46 -14.80610 -40.94389 7883 ft 267 kts 302°
2026-05-08 00:46 -14.79692 -40.96018 8240 ft 258 kts 302°
2026-05-08 00:46 -14.78785 -40.97623 8302 ft 262 kts 302°
2026-05-08 00:46 -14.77833 -40.99304 8333 ft 288 kts 302°
2026-05-08 00:47 -14.76752 -41.01207 8440 ft 325 kts 301°
2026-05-08 00:47 -14.75558 -41.03322 8653 ft 354 kts 301°
2026-05-08 00:47 -14.74307 -41.05535 9438 ft 361 kts 301°
2026-05-08 00:47 -14.73044 -41.07769 10356 ft 363 kts 301°
2026-05-08 00:48 -14.71771 -41.10016 11218 ft 366 kts 301°
2026-05-08 00:48 -14.70483 -41.12289 12026 ft 370 kts 301°
2026-05-08 00:48 -14.69182 -41.14586 12802 ft 374 kts 301°
2026-05-08 00:48 -14.67866 -41.16906 13543 ft 378 kts 301°
2026-05-08 00:49 -14.66531 -41.19257 14223 ft 383 kts 301°
2026-05-08 00:49 -14.65183 -41.21632 14913 ft 387 kts 301°
2026-05-08 00:49 -14.63543 -41.23836 15490 ft 391 kts 320°
2026-05-08 00:49 -14.61176 -41.25186 16094 ft 392 kts 343°
2026-05-08 00:50 -14.60207 -41.25450 16324 ft 392 kts 350°
2026-05-08 00:50 -14.58353 -41.25564 16705 ft 393 kts
2026-05-08 00:50 -14.55712 -41.24842 17275 ft 395 kts 21°
2026-05-08 00:51 -14.53008 -41.24233 17824 ft 401 kts
2026-05-08 00:51 -14.50237 -41.23711 18363 ft 407 kts 12°
2026-05-08 00:51 -14.47948 -41.23287 18788 ft 411 kts 11°
2026-05-08 00:51 -14.45116 -41.22755 19346 ft 415 kts 11°
2026-05-08 00:52 -14.42246 -41.22227 19881 ft 420 kts 11°
2026-05-08 00:52 -14.39359 -41.21690 20414 ft 423 kts 11°
2026-05-08 00:52 -14.36442 -41.21149 20920 ft 428 kts 11°
2026-05-08 00:52 -14.33495 -41.20601 21428 ft 431 kts 11°
2026-05-08 00:53 -14.30526 -41.20051 21903 ft 435 kts 11°
2026-05-08 00:53 -14.27518 -41.19495 22338 ft 440 kts 11°
2026-05-08 00:53 -14.24485 -41.18930 22802 ft 444 kts 11°
2026-05-08 00:53 -14.21426 -41.18366 23219 ft 448 kts 11°
2026-05-08 00:54 -14.18342 -41.17793 23645 ft 452 kts 11°
2026-05-08 00:54 -14.15229 -41.17217 24102 ft 455 kts 11°
2026-05-08 00:54 -14.12088 -41.16636 24491 ft 459 kts 11°
2026-05-08 00:54 -14.08931 -41.16050 24899 ft 462 kts 11°
2026-05-08 00:55 -14.05748 -41.15462 25287 ft 465 kts 11°
2026-05-08 00:55 -14.02542 -41.14869 25635 ft 469 kts 11°
2026-05-08 00:55 -13.99310 -41.14272 25972 ft 473 kts 11°
2026-05-08 00:55 -13.96052 -41.13669 26272 ft 477 kts 11°
2026-05-08 00:56 -13.92767 -41.13063 26629 ft 480 kts 11°
2026-05-08 00:56 -13.89458 -41.12449 26988 ft 483 kts 11°
2026-05-08 00:56 -13.86249 -41.11430 27198 ft 485 kts 27°
2026-05-08 00:56 -13.83220 -41.09886 27525 ft 486 kts 27°
2026-05-08 00:57 -13.80156 -41.08367 27810 ft 489 kts 27°
2026-05-08 00:57 -13.77085 -41.06837 28104 ft 491 kts 27°
2026-05-08 00:57 -13.73998 -41.05308 28356 ft 494 kts 27°
2026-05-08 00:57 -13.70882 -41.03765 28598 ft 497 kts 27°
2026-05-08 00:58 -13.67761 -41.02221 28885 ft 499 kts 27°
2026-05-08 00:58 -13.64612 -41.00664 29109 ft 502 kts 26°
2026-05-08 00:58 -13.61459 -40.99103 29342 ft 505 kts 27°
2026-05-08 00:58 -13.58280 -40.97531 29612 ft 507 kts 26°
2026-05-08 00:59 -13.55181 -40.96005 31043 ft 477 kts 26°
2026-05-08 00:59 -13.52295 -40.94575 32391 ft 454 kts 26°
2026-05-08 00:59 -13.49463 -40.93173 32817 ft 452 kts 26°
2026-05-08 00:59 -13.46605 -40.91762 32936 ft 458 kts 26°
2026-05-08 01:00 -13.43712 -40.90334 33098 ft 463 kts 26°
2026-05-08 01:00 -13.40792 -40.88892 33360 ft 465 kts 26°
2026-05-08 01:00 -13.37859 -40.87446 33621 ft 467 kts 26°
2026-05-08 01:00 -13.34921 -40.85993 33932 ft 468 kts 26°
2026-05-08 01:01 -13.31963 -40.84532 34119 ft 472 kts 25°
2026-05-08 01:01 -13.25924 -40.81559 34148 ft 487 kts 25°
2026-05-08 01:02 -13.19707 -40.78493 34182 ft 500 kts 25°
2026-05-08 01:02 -13.13336 -40.75354 34226 ft 513 kts 25°
2026-05-08 01:03 -13.06801 -40.72137 34255 ft 525 kts 25°
2026-05-08 01:03 -13.00124 -40.68850 34292 ft 537 kts 25°
2026-05-08 01:04 -12.93311 -40.65497 34327 ft 547 kts 25°
2026-05-08 01:04 -12.89864 -40.63802 34536 ft 548 kts 25°
2026-05-08 01:04 -12.86739 -40.62265 34700 ft 549 kts 25°
2026-05-08 01:04 -12.83251 -40.60551 34901 ft 550 kts 25°
2026-05-08 01:05 -12.79787 -40.58850 35090 ft 551 kts 25°
2026-05-08 01:05 -12.76325 -40.57148 35254 ft 552 kts 24°
2026-05-08 01:05 -12.72853 -40.55443 35440 ft 553 kts 25°
2026-05-08 01:05 -12.69371 -40.53736 35556 ft 555 kts 25°
2026-05-08 01:06 -12.65884 -40.52025 35771 ft 555 kts 24°
2026-05-08 01:06 -12.62396 -40.50316 35893 ft 556 kts 24°
2026-05-08 01:06 -12.58893 -40.48599 36047 ft 557 kts 24°
2026-05-08 01:07 -12.51881 -40.45166 36249 ft 559 kts 24°
2026-05-08 01:07 -12.44845 -40.41725 36413 ft 560 kts 24°
2026-05-08 01:08 -12.37791 -40.38272 36525 ft 561 kts 24°
2026-05-08 01:08 -12.30740 -40.34825 36583 ft 562 kts 24°
2026-05-08 01:09 -12.23644 -40.31360 36645 ft 562 kts 24°
2026-05-08 01:09 -12.16584 -40.27913 36685 ft 562 kts 24°
2026-05-08 01:10 -12.09767 -40.24579 39788 ft 496 kts 23°
2026-05-08 01:10 -12.06859 -40.23152 42451 ft 456 kts 22°
2026-05-08 01:10 -12.04004 -40.21769 42749 ft 455 kts 22°
2026-05-08 01:10 -12.01148 -40.20382 43279 ft 446 kts 22°
2026-05-08 01:11 -11.98423 -40.19050 44435 ft 427 kts 22°
2026-05-08 01:11 -11.95740 -40.17744 44759 ft 423 kts 21°
2026-05-08 01:11 -11.93077 -40.16450 44838 ft 423 kts 21°
2026-05-08 01:11 -11.90430 -40.15163 45027 ft 422 kts 22°
2026-05-08 01:12 -11.87767 -40.13866 45037 ft 422 kts 21°
2026-05-08 01:12 -11.82591 -40.11347 45049 ft 425 kts 21°
2026-05-08 01:13 -11.77225 -40.08734 45020 ft 428 kts 21°
2026-05-08 01:13 -11.71821 -40.06106 45013 ft 431 kts 21°
2026-05-08 01:14 -11.66376 -40.03462 45021 ft 434 kts 22°
2026-05-08 01:14 -11.60894 -40.00795 45012 ft 437 kts 21°
2026-05-08 01:15 -11.55357 -39.98105 45014 ft 441 kts 22°
2026-05-08 01:15 -11.49780 -39.95397 45005 ft 447 kts 22°
2026-05-08 01:16 -11.44092 -39.92633 45008 ft 455 kts 22°
2026-05-08 01:16 -11.38316 -39.89831 45013 ft 463 kts 22°
2026-05-08 01:17 -11.32439 -39.86980 45022 ft 471 kts 22°
2026-05-08 01:17 -11.26463 -39.84083 45013 ft 479 kts 22°
2026-05-08 01:18 -11.20386 -39.81137 45017 ft 487 kts 22°
2026-05-08 01:18 -11.14176 -39.78127 45014 ft 495 kts 22°
2026-05-08 01:19 -11.07882 -39.75081 45008 ft 503 kts 22°
2026-05-08 01:19 -11.01416 -39.71952 45004 ft 511 kts 22°
2026-05-08 01:20 -10.94906 -39.68803 45002 ft 518 kts 22°
2026-05-08 01:20 -10.88344 -39.65629 44986 ft 524 kts 22°
2026-05-08 01:21 -10.81700 -39.62419 44985 ft 527 kts 22°
2026-05-08 01:21 -10.75041 -39.59203 45000 ft 529 kts 22°
2026-05-08 01:22 -10.68516 -39.56051 45015 ft 529 kts 22°
2026-05-08 01:22 -10.61819 -39.52819 45003 ft 529 kts 22°
2026-05-08 01:23 -10.55093 -39.49576 44981 ft 529 kts 22°
2026-05-08 01:23 -10.48404 -39.46351 44982 ft 528 kts 22°
2026-05-08 01:24 -10.41727 -39.43134 45013 ft 527 kts 22°
2026-05-08 01:24 -10.35072 -39.39920 45029 ft 526 kts 22°
2026-05-08 01:25 -10.28462 -39.36731 45004 ft 523 kts 22°
2026-05-08 01:25 -10.21867 -39.33555 44993 ft 521 kts 22°
2026-05-08 01:26 -10.15312 -39.30404 45011 ft 519 kts 22°
2026-05-08 01:26 -10.08788 -39.27270 44993 ft 518 kts 22°
2026-05-08 01:27 -10.02272 -39.24140 44988 ft 516 kts 22°
2026-05-08 01:27 -9.95767 -39.21018 44995 ft 515 kts 22°
2026-05-08 01:28 -9.89269 -39.17899 44987 ft 515 kts 22°
2026-05-08 01:28 -9.82773 -39.14824 44987 ft 514 kts 21°
2026-05-08 01:29 -9.76253 -39.11811 44973 ft 513 kts 21°
2026-05-08 01:29 -9.69744 -39.08802 44968 ft 513 kts 21°
2026-05-08 01:30 -9.63243 -39.05798 44966 ft 512 kts 21°
2026-05-08 01:30 -9.56767 -39.02808 44968 ft 511 kts 21°
2026-05-08 01:31 -9.50294 -38.99819 44964 ft 510 kts 21°
2026-05-08 01:31 -9.43767 -38.96806 44964 ft 510 kts 21°
2026-05-08 01:32 -9.37239 -38.93795 44964 ft 510 kts 21°
2026-05-08 01:32 -9.30744 -38.90799 44963 ft 509 kts 21°
2026-05-08 01:33 -9.24290 -38.87823 44966 ft 509 kts 21°
2026-05-08 01:33 -9.17835 -38.84851 44958 ft 508 kts 21°
2026-05-08 01:34 -9.11394 -38.81883 44943 ft 508 kts 22°
2026-05-08 01:34 -9.04955 -38.78920 44958 ft 507 kts 22°
2026-05-08 01:35 -8.98521 -38.75956 44951 ft 507 kts 22°
2026-05-08 01:35 -8.92072 -38.72991 44951 ft 506 kts 22°
2026-05-08 01:36 -8.85640 -38.70031 44948 ft 506 kts 21°
2026-05-08 01:36 -8.79220 -38.67079 44941 ft 506 kts 21°
2026-05-08 01:37 -8.72798 -38.64129 44945 ft 506 kts 21°
2026-05-08 01:37 -8.66375 -38.61181 44958 ft 506 kts 21°
2026-05-08 01:38 -8.59944 -38.58227 44946 ft 506 kts 21°
2026-05-08 01:38 -8.53509 -38.55274 44946 ft 506 kts 21°
2026-05-08 01:39 -8.47048 -38.52311 44960 ft 506 kts 21°
2026-05-08 01:39 -8.40594 -38.49352 44948 ft 506 kts 21°
2026-05-08 01:40 -8.34133 -38.46391 44949 ft 506 kts 21°
2026-05-08 01:40 -8.27657 -38.43424 44963 ft 506 kts 21°
2026-05-08 01:41 -8.21200 -38.40464 44962 ft 506 kts 21°
2026-05-08 01:41 -8.14743 -38.37509 44961 ft 506 kts 21°
2026-05-08 01:42 -8.08319 -38.34566 44966 ft 506 kts 21°
2026-05-08 01:42 -8.01894 -38.31625 44957 ft 505 kts 21°
2026-05-08 01:43 -7.95485 -38.28692 44960 ft 505 kts 20°
2026-05-08 01:43 -7.89063 -38.25753 44973 ft 504 kts 20°
2026-05-08 01:44 -7.82661 -38.22826 44985 ft 504 kts 20°
2026-05-08 01:44 -7.76448 -38.19536 44908 ft 511 kts 38°
2026-05-08 01:44 -7.74023 -38.16898 45081 ft 513 kts 47°
2026-05-08 01:45 -7.71715 -38.14114 45005 ft 513 kts 46°
2026-05-08 01:45 -7.67072 -38.08597 45032 ft 514 kts 46°
2026-05-08 01:46 -7.62442 -38.03102 44968 ft 515 kts 46°
2026-05-08 01:46 -7.57798 -37.97591 44984 ft 514 kts 46°
2026-05-08 01:47 -7.53168 -37.92096 45003 ft 514 kts 47°
2026-05-08 01:47 -7.48532 -37.86602 44966 ft 515 kts 46°
2026-05-08 01:48 -7.41583 -37.78362 44954 ft 515 kts 46°
2026-05-08 01:48 -7.36946 -37.72871 44944 ft 515 kts 46°
2026-05-08 01:49 -7.32311 -37.67382 44972 ft 514 kts 46°
2026-05-08 01:49 -7.27684 -37.61904 44959 ft 514 kts 46°
2026-05-08 01:50 -7.23050 -37.56419 44957 ft 513 kts 46°
2026-05-08 01:50 -7.18442 -37.50939 44967 ft 513 kts 46°
2026-05-08 01:51 -7.13828 -37.45453 44958 ft 513 kts 47°
2026-05-08 01:51 -7.09214 -37.39965 44948 ft 513 kts 47°
2026-05-08 01:52 -7.04595 -37.34475 44944 ft 512 kts 46°
2026-05-08 01:52 -6.99968 -37.28980 44920 ft 511 kts 46°
2026-05-08 01:53 -6.96008 -37.23030 45020 ft 514 kts 60°
2026-05-08 01:53 -6.94321 -37.19817 44855 ft 516 kts 59°
2026-05-08 01:53 -6.92637 -37.16626 44312 ft 514 kts 60°
2026-05-08 01:54 -6.90976 -37.13484 43744 ft 503 kts 59°
2026-05-08 01:54 -6.89359 -37.10428 43139 ft 489 kts 59°
2026-05-08 01:54 -6.87888 -37.07647 42587 ft 478 kts 59°
2026-05-08 01:54 -6.86346 -37.04734 42003 ft 466 kts 59°
2026-05-08 01:55 -6.84840 -37.01888 41426 ft 455 kts 58°
2026-05-08 01:55 -6.83366 -36.99099 40842 ft 444 kts 58°
2026-05-08 01:55 -6.81925 -36.96377 40256 ft 435 kts 58°
2026-05-08 01:55 -6.80517 -36.93720 39721 ft 425 kts 58°
2026-05-08 01:56 -6.79138 -36.91111 39191 ft 416 kts 58°
2026-05-08 01:56 -6.77785 -36.88563 38666 ft 408 kts 58°
2026-05-08 01:56 -6.76468 -36.86076 38186 ft 400 kts 58°
2026-05-08 01:56 -6.75176 -36.83632 37716 ft 392 kts 58°
2026-05-08 01:57 -6.73902 -36.81224 37241 ft 385 kts 58°
2026-05-08 01:57 -6.72645 -36.78859 36763 ft 379 kts 57°
2026-05-08 01:57 -6.71410 -36.76530 36300 ft 373 kts 57°
2026-05-08 01:57 -6.70201 -36.74246 35843 ft 367 kts 57°
2026-05-08 01:58 -6.69013 -36.72003 35376 ft 361 kts 57°
2026-05-08 01:58 -6.67837 -36.69792 34911 ft 357 kts 57°
2026-05-08 01:58 -6.66681 -36.67607 34459 ft 352 kts 57°
2026-05-08 01:58 -6.65537 -36.65453 33965 ft 349 kts 57°
2026-05-08 01:59 -6.64401 -36.63310 33369 ft 348 kts 57°
2026-05-08 01:59 -6.63260 -36.61160 32790 ft 348 kts 57°
2026-05-08 01:59 -6.62126 -36.59024 32254 ft 347 kts 57°
2026-05-08 01:59 -6.60835 -36.56993 31749 ft 342 kts 47°
2026-05-08 02:00 -6.59385 -36.55105 31229 ft 341 kts 48°
2026-05-08 02:00 -6.57947 -36.53202 30715 ft 341 kts 49°
2026-05-08 02:00 -6.56519 -36.51302 30205 ft 341 kts 49°
2026-05-08 02:00 -6.55090 -36.49401 29695 ft 341 kts 49°
2026-05-08 02:01 -6.53663 -36.47500 29189 ft 341 kts 49°
2026-05-08 02:01 -6.52231 -36.45603 28679 ft 341 kts 49°
2026-05-08 02:01 -6.50800 -36.43698 28204 ft 341 kts 49°
2026-05-08 02:01 -6.49368 -36.41793 27751 ft 340 kts 49°
2026-05-08 02:02 -6.47942 -36.39893 27283 ft 339 kts 49°
2026-05-08 02:02 -6.46525 -36.38007 26823 ft 338 kts 49°
2026-05-08 02:02 -6.45108 -36.36126 26358 ft 337 kts 49°
2026-05-08 02:02 -6.43694 -36.34255 25891 ft 335 kts 49°
2026-05-08 02:03 -6.42298 -36.32392 25415 ft 333 kts 49°
2026-05-08 02:03 -6.40907 -36.30544 24938 ft 331 kts 48°
2026-05-08 02:03 -6.39523 -36.28708 24464 ft 328 kts 48°
2026-05-08 02:03 -6.38152 -36.26889 23989 ft 326 kts 48°
2026-05-08 02:04 -6.36790 -36.25079 23406 ft 327 kts 48°
2026-05-08 02:04 -6.35402 -36.23244 22595 ft 335 kts 48°
2026-05-08 02:04 -6.33994 -36.21376 21811 ft 340 kts 49°
2026-05-08 02:04 -6.32564 -36.19481 21018 ft 344 kts 49°
2026-05-08 02:05 -6.31111 -36.17559 20224 ft 348 kts 50°
2026-05-08 02:05 -6.29652 -36.15619 19425 ft 351 kts 50°
2026-05-08 02:05 -6.28179 -36.13673 18624 ft 353 kts 51°
2026-05-08 02:05 -6.26701 -36.11709 17817 ft 355 kts 51°
2026-05-08 02:06 -6.25218 -36.09734 17015 ft 356 kts 51°
2026-05-08 02:06 -6.23727 -36.07759 16204 ft 356 kts 52°
2026-05-08 02:06 -6.22235 -36.05782 15384 ft 356 kts 52°
2026-05-08 02:06 -6.20746 -36.03807 14581 ft 356 kts 53°
2026-05-08 02:07 -6.19255 -36.01831 13752 ft 356 kts 53°
2026-05-08 02:07 -6.17770 -35.99859 12941 ft 355 kts 53°
2026-05-08 02:07 -6.16286 -35.97892 12122 ft 353 kts 54°
2026-05-08 02:07 -6.14809 -35.95936 11300 ft 351 kts 54°
2026-05-08 02:08 -6.13348 -35.93997 10479 ft 348 kts 55°
2026-05-08 02:08 -6.11901 -35.92075 9647 ft 345 kts 55°
2026-05-08 02:08 -6.10468 -35.90180 9068 ft 333 kts 55°
2026-05-08 02:08 -6.09107 -35.88374 8724 ft 316 kts 56°
2026-05-08 02:09 -6.07806 -35.86651 8363 ft 303 kts 56°
2026-05-08 02:09 -6.06557 -35.84996 8012 ft 292 kts 56°
2026-05-08 02:09 -6.05362 -35.83413 7846 ft 275 kts 56°
2026-05-08 02:09 -6.04228 -35.81910 7696 ft 269 kts 56°
2026-05-08 02:10 -6.03083 -35.80387 7590 ft 277 kts 56°
2026-05-08 02:10 -6.01902 -35.78822 7492 ft 284 kts 56°
2026-05-08 02:10 -6.00700 -35.77220 7386 ft 288 kts 56°
2026-05-08 02:10 -5.99486 -35.75605 7276 ft 290 kts 56°
2026-05-08 02:11 -5.98262 -35.73985 7165 ft 292 kts 56°
2026-05-08 02:11 -5.97027 -35.72355 7051 ft 293 kts 56°
2026-05-08 02:11 -5.95804 -35.70735 6923 ft 288 kts 56°
2026-05-08 02:11 -5.94580 -35.69158 6790 ft 284 kts 53°
2026-05-08 02:12 -5.93334 -35.67642 6662 ft 279 kts 54°
2026-05-08 02:12 -5.92117 -35.66140 6534 ft 275 kts 54°
2026-05-08 02:12 -5.90907 -35.64644 6408 ft 276 kts 54°
2026-05-08 02:12 -5.89687 -35.63142 6245 ft 279 kts 55°
2026-05-08 02:13 -5.88454 -35.61618 6075 ft 281 kts 54°
2026-05-08 02:13 -5.87212 -35.60091 5894 ft 282 kts 54°
2026-05-08 02:13 -5.85982 -35.58571 5693 ft 278 kts 54°
2026-05-08 02:13 -5.84756 -35.57076 5494 ft 276 kts 53°
2026-05-08 02:14 -5.83178 -35.55985 5277 ft 283 kts 21°
2026-05-08 02:14 -5.81232 -35.55666 5159 ft 278 kts 12°
2026-05-08 02:14 -5.79335 -35.55352 4965 ft 273 kts 13°
2026-05-08 02:14 -5.77463 -35.55056 4758 ft 269 kts 14°
2026-05-08 02:15 -5.75754 -35.54421 4506 ft 256 kts 43°
2026-05-08 02:15 -5.74795 -35.53043 4313 ft 232 kts 76°
2026-05-08 02:15 -5.74695 -35.51513 4096 ft 210 kts 99°
2026-05-08 02:15 -5.74830 -35.50095 3812 ft 199 kts 96°
2026-05-08 02:16 -5.74972 -35.48738 3375 ft 189 kts 99°
2026-05-08 02:16 -5.75157 -35.47497 2863 ft 173 kts 102°
2026-05-08 02:16 -5.75382 -35.46331 2414 ft 172 kts 103°
2026-05-08 02:16 -5.75594 -35.45199 2189 ft 159 kts 101°
2026-05-08 02:17 -5.75766 -35.44116 1908 ft 157 kts 101°
2026-05-08 02:17 -5.75941 -35.43058 1578 ft 151 kts 99°
2026-05-08 02:17 -5.76107 -35.42017 1237 ft 151 kts 99°
2026-05-08 02:17 -5.76277 -35.40983 912 ft 146 kts 98°
2026-05-08 02:18 -5.76440 -35.39990 640 ft 147 kts 97°
2026-05-08 02:18 -5.76617 -35.38909 526 ft 167 kts 99°
2026-05-08 02:18 -5.76793 -35.37831 346 ft 141 kts 97°
2026-05-08 02:18 -5.76929 -35.36997 289 ft 100 kts 96°
2026-05-08 02:19 -5.77008 -35.36497 289 ft 46 kts 98°
2026-05-08 02:19 -5.77044 -35.36277 289 ft 12 kts 93°
2026-05-08 02:19 -5.77029 -35.36163 289 ft 21 kts 74°